#timestamp,LO_Frequency,Hit,StdDev 
1591704015.5,286047004.8,N
1591704035.3,286047008.0,Y
1591704055.1,286047003.4,P
1591704075.9,286047007.1,P
1591704095.7,286047009.3,P
1591704115.5,286047010.3,Y
1591704135.4,286047004.2,P
1591704155.2,286047000.4,N
1591704175.1,286047000.3,N
1591704176.0,286047000.3,N
1591704195.8,286047001.4,N
1591704215.6,286047004.4,N
1591704235.5,286047003.9,N
1591704255.3,286047004.1,N
1591704275.1,286047001.4,N
1591704295.9,286047007.1,Y
1591704315.7,286047007.3,P
1591704335.6,286047004.5,N
1591704355.4,286047008.9,P
1591704375.2,286047005.3,N
1591704395.1,286047007.0,Y
1591704396.0,286047007.0,P
1591704415.8,286047000.1,N
1591704435.7,286047002.6,N
1591704455.5,286046998.3,N
1591704475.3,286046996.2,N
1591704495.2,286046997.7,N
1591704515.0,286046996.7,N
1591704515.9,286046996.7,N
1591704535.7,286047002.4,N
1591704555.6,286047000.8,N
1591704575.4,286047001.2,N
1591704595.3,286047002.8,N
1591704615.1,286047000.7,N
1591704616.0,286047000.7,N
1591704635.8,286046999.3,N
1591704655.7,286046995.3,N
1591704675.5,286047000.6,N
1591704695.3,286046999.9,N
1591704715.2,286046998.9,N
1591704735.0,286046997.6,N
1591704735.9,286046997.6,N
1591704755.8,286046998.1,N
1591704775.6,286047005.3,N
1591704795.4,286047008.1,N
1591704815.3,286047012.2,Y
1591704835.1,286047009.9,P
1591704855.8,286047009.9,N
1591704875.7,286047011.8,N
1591704895.5,286047012.8,N
1591704915.4,286047009.9,N
1591704935.2,286047005.9,N
1591704955.0,286047000.2,N
1591704955.9,286047000.2,N
1591704975.8,286047003.5,N
1591704995.6,286047010.7,N
1591705015.4,286047010.5,N
1591705035.3,286047007.5,N
1591705055.1,286047009.3,N
1591705075.9,286047007.7,N
1591705095.7,286047002.3,N
1591705115.5,286047001.0,N
1591705135.4,286047000.0,N
1591705155.2,286047004.0,N
1591705175.0,286047005.8,N
1591705175.9,286047005.8,N
1591705195.8,286047001.4,N
1591705215.6,286047000.6,N
1591705235.5,286046998.9,N
1591705255.3,286046994.8,N
1591705275.1,286047010.5,N
1591705295.9,286047025.7,Y
1591705315.7,286047031.3,P
1591705335.5,286047040.4,P
1591705355.4,286047042.0,N
1591705375.2,286047045.1,Y
1591705395.1,286047029.7,P
1591705396.0,286047029.7,P
1591705415.8,286047004.7,P
1591705435.6,286046989.6,N
1591705455.5,286046977.9,N
1591705475.3,286046967.1,N
1591705495.2,286046957.3,N
1591705515.9,286046953.6,N
1591705535.7,286046950.6,N
1591705555.6,286046950.8,N
1591705575.4,286046949.0,N
1591705595.2,286046950.6,N
1591705615.1,286046952.9,N
1591705616.0,286046952.9,N
1591705635.8,286046949.2,N
1591705655.7,286046951.3,N
1591705675.5,286046948.5,N
1591705695.3,286046949.7,N
1591705715.2,286046951.9,N
1591705735.0,286046951.4,N
1591705735.9,286046951.4,N
1591705755.8,286046950.4,N
1591705775.6,286046950.7,N
1591705795.4,286046948.3,N
1591705815.3,286046946.4,N
1591705835.1,286046946.1,N
1591705855.8,286046945.5,N
1591705875.7,286046949.1,N
1591705895.5,286046950.7,N
1591705915.4,286046950.1,N
1591705935.2,286046953.5,N
1591705955.0,286046957.9,N
1591705955.9,286046957.9,Y
1591705975.8,286047002.3,P
1591705995.6,286047001.2,N
1591706015.4,286046995.6,N
1591706035.3,286046995.1,N
1591706055.1,286046990.4,N
1591706075.9,286046989.8,N
1591706095.7,286046987.1,N
1591706115.5,286046987.3,N
1591706135.4,286046989.6,N
1591706155.2,286046989.5,N
1591706175.0,286046990.2,N
1591706176.0,286046990.2,N
1591706195.8,286046990.2,N
1591706215.6,286046994.8,N
1591706235.5,286046990.1,N
1591706255.3,286046991.5,N
1591706275.1,286046993.1,N
1591706295.9,286046991.1,N
1591706315.7,286046989.4,N
1591706335.5,286046987.6,N
1591706355.4,286046992.3,N
1591706375.2,286046994.0,N
1591706395.1,286046996.7,N
1591706396.0,286046996.7,N
1591706415.8,286047001.4,N
1591706435.6,286047005.8,N
1591706455.5,286047002.4,N
1591706475.3,286047001.7,N
1591706495.1,286047002.6,N
1591706515.9,286046998.2,N
1591706535.7,286047001.1,N
1591706555.6,286047000.7,N
1591706575.4,286047004.1,N
1591706595.2,286047001.5,N
1591706615.1,286047004.0,N
1591706616.0,286047004.0,N
1591706635.8,286047004.4,N
1591706655.7,286047003.4,N
1591706675.5,286047001.6,N
1591706725.4,286046999.0,E
1591706735.3,286046998.7,N
1591706755.1,286046999.9,P
1591706775.9,286047004.1,P
1591706795.7,286047003.7,N
1591706815.5,286047005.4,N
1591706835.4,286047005.2,N
1591706855.2,286047003.1,N
1591706875.1,286047001.3,N
1591706876.0,286047001.3,N
1591706895.8,286047001.8,N
1591706915.6,286047003.9,N
1591706935.5,286047003.9,N
1591706955.3,286047001.6,N
1591706975.1,286047003.5,N
1591706995.9,286047003.6,N
1591707015.7,286047003.7,N
1591707035.6,286047000.9,N
1591707055.4,286046999.7,N
1591707075.2,286047000.7,N
1591707095.1,286046998.5,N
1591707096.0,286046998.5,N
1591707115.8,286047001.8,N
1591707135.6,286047004.9,N
1591707155.5,286047010.6,Y
1591707175.3,286047011.6,P
1591707195.2,286047015.1,P
1591707215.9,286047014.2,N
1591707235.7,286047017.4,Y
1591707255.6,286047011.2,P
1591707275.4,286047013.3,P
1591707295.2,286047011.8,P
1591707315.1,286047011.8,Y
1591707316.0,286047011.8,P
1591707335.8,286046997.1,P
1591707355.7,286046998.6,N
1591707375.5,286047001.0,N
1591707395.3,286046998.2,N
1591707415.2,286046997.8,N
1591707435.0,286046990.1,N
1591707435.9,286046990.1,N
1591707455.8,286046987.1,N
1591707475.6,286046985.7,N
1591707495.4,286046985.4,N
1591707515.3,286046989.9,N
1591707535.1,286046986.6,N
1591707536.0,286046986.6,N
1591707555.8,286046985.2,N
1591707575.7,286046983.1,N
1591707595.5,286046986.5,N
